,,Stat6,,Stat2,,Stat8,,Stat9,,Stat10,,Wind1,,Wind1,
time,status,PA1M_AVG,status,PR1M_SUM,status,RH1M_AVG,status,SR1M_AVG,status,TA1M_AVG,status,W1dAve1m,status,W1sAve1m,
2009-07-16, 00:00:00,VALID,918.83,VALID,0,VALID,100,VALID,0.0509425,VALID,19.878,VALID,27,VALID,1.07961,
2009-07-16, 00:01:00,VALID,918.856,VALID,0,VALID,100,VALID,0.0339617,VALID,19.8391,VALID,8,VALID,0.916101,
2009-07-16, 00:02:00,VALID,918.856,VALID,0,VALID,100,VALID,0.0509425,VALID,19.8166,VALID,204,VALID,0.701219,
2009-07-16, 00:03:00,VALID,918.883,VALID,0,VALID,100,VALID,0.0169808,VALID,19.7837,VALID,10,VALID,0.46005,
2009-07-16, 00:04:00,VALID,918.851,VALID,0,VALID,100,VALID,0.0169808,VALID,19.7839,VALID,20,VALID,0.925071,
2009-07-16, 00:05:00,VALID,918.886,VALID,0,VALID,100,VALID,0.0169808,VALID,19.7839,VALID,3,VALID,1.08352,
2009-07-16, 00:06:00,VALID,918.856,VALID,0,VALID,100,VALID,0.0339617,VALID,19.7517,VALID,90,VALID,0.757643,
2009-07-16, 00:07:00,VALID,918.854,VALID,0,VALID,100,VALID,0.0169808,VALID,19.6833,VALID,244,VALID,1.27801,
2009-07-16, 00:08:00,VALID,918.875,VALID,0,VALID,100,VALID,0.0679233,VALID,19.6476,VALID,263,VALID,0.71548,
2009-07-16, 00:09:00,VALID,918.85,VALID,0,VALID,100,VALID,0.0169808,VALID,19.6444,VALID,335,VALID,0.346236,
2009-07-16, 00:10:00,VALID,918.828,VALID,0,VALID,100,VALID,0.0169808,VALID,19.6152,VALID,30,VALID,0.984756,
2009-07-16, 00:11:00,VALID,918.822,VALID,0,VALID,100,VALID,0.0509425,VALID,19.6085,VALID,33,VALID,0.690451,
2009-07-16, 00:12:00,VALID,918.797,VALID,0,VALID,100,VALID,-0.0509425,VALID,19.6289,VALID,240,VALID,0.457775,
2009-07-16, 00:13:00,VALID,918.782,VALID,0,VALID,100,VALID,-0.0679233,VALID,19.6067,VALID,196,VALID,0.143429,
2009-07-16, 00:14:00,VALID,918.751,VALID,0.2,VALID,100,VALID,-0.0679233,VALID,19.5902,VALID,124,VALID,0.568314,
2009-07-16, 00:15:00,VALID,918.74,VALID,0,VALID,100,VALID,-0.0849042,VALID,19.5807,VALID,17,VALID,1.33043,
2009-07-16, 00:16:00,VALID,918.738,VALID,0,VALID,100,VALID,-0.0679233,VALID,19.6005,VALID,31,VALID,1.10211,
2009-07-16, 00:17:00,VALID,918.734,VALID,0,VALID,100,VALID,-0.0509425,VALID,19.5775,VALID,30,VALID,0.778646,
2009-07-16, 00:18:00,VALID,918.71,VALID,0,VALID,100,VALID,-0.0679233,VALID,19.5448,VALID,23,VALID,1.4375,
2009-07-16, 00:19:00,VALID,918.712,VALID,0,VALID,100,VALID,-0.0849042,VALID,19.5745,VALID,20,VALID,0.705433,
2009-07-16, 00:20:00,VALID,918.687,VALID,0,VALID,100,VALID,-0.0849042,VALID,19.5743,VALID,12,VALID,0.700945,
2009-07-16, 00:21:00,VALID,918.639,VALID,0,VALID,100,VALID,-0.101885,VALID,19.4964,VALID,27,VALID,2.47802,
2009-07-16, 00:22:00,VALID,918.64,VALID,0,VALID,100,VALID,-0.0849042,VALID,19.4931,VALID,36,VALID,1.54474,
2009-07-16, 00:23:00,VALID,918.62,VALID,0,VALID,100,VALID,-0.0169808,VALID,19.5026,VALID,285,VALID,0.671494,
2009-07-16, 00:24:00,VALID,918.6,VALID,0,VALID,100,VALID,-0.0679233,VALID,19.4734,VALID,267,VALID,1.03869,
2009-07-16, 00:25:00,VALID,918.575,VALID,0,VALID,100,VALID,0,VALID,19.4472,VALID,331,VALID,0.60394,
2009-07-16, 00:26:00,VALID,918.538,VALID,0,VALID,100,VALID,-0.0339617,VALID,19.4472,VALID,20,VALID,0.626906,
2009-07-16, 00:27:00,VALID,918.546,VALID,0,VALID,100,VALID,-0.0509425,VALID,19.4704,VALID,18,VALID,1.10374,
2009-07-16, 00:28:00,VALID,918.577,VALID,0,VALID,100,VALID,-0.0339617,VALID,19.4537,VALID,347,VALID,1.15556,
2009-07-16, 00:29:00,VALID,918.609,VALID,0,VALID,100,VALID,-0.0339617,VALID,19.4308,VALID,338,VALID,1.00568,
2009-07-16, 00:30:00,VALID,918.634,VALID,0,VALID,100,VALID,-0.0169808,VALID,19.434,VALID,20,VALID,0.816592,
2009-07-16, 00:31:00,VALID,918.649,VALID,0,VALID,100,VALID,-0.0169808,VALID,19.4507,VALID,9,VALID,0.933333,
2009-07-16, 00:32:00,VALID,918.644,VALID,0,VALID,100,VALID,-0.0339617,VALID,19.4607,VALID,1,VALID,0.457217,
2009-07-16, 00:33:00,VALID,918.63,VALID,0,VALID,100,VALID,-0.0169808,VALID,19.451,VALID,1,VALID,0.00853924,
2009-07-16, 00:34:00,VALID,918.609,VALID,0,VALID,100,VALID,-0.0849042,VALID,19.4278,VALID,334,VALID,0,
2009-07-16, 00:35:00,VALID,918.592,VALID,0,VALID,100,VALID,-0.0849042,VALID,19.4475,VALID,312,VALID,0,
2009-07-16, 00:36:00,VALID,918.583,VALID,0,VALID,100,VALID,-0.0509425,VALID,19.4537,VALID,312,VALID,0,
2009-07-16, 00:37:00,VALID,918.556,VALID,0,VALID,100,VALID,-0.0509425,VALID,19.4734,VALID,326,VALID,0.224144,
2009-07-16, 00:38:00,VALID,918.554,VALID,0,VALID,100,VALID,-0.0339617,VALID,19.4704,VALID,19,VALID,0.702363,
2009-07-16, 00:39:00,VALID,918.523,VALID,0,VALID,100,VALID,-0.0679233,VALID,19.4769,VALID,33,VALID,0.697359,
2009-07-16, 00:40:00,VALID,918.508,VALID,0,VALID,100,VALID,-0.0339617,VALID,19.425,VALID,33,VALID,0.73971,
2009-07-16, 00:41:00,VALID,918.5,VALID,0,VALID,100,VALID,-0.0339617,VALID,19.3661,VALID,41,VALID,0.916969,
2009-07-16, 00:42:00,VALID,918.466,VALID,0,VALID,100,VALID,-0.0679233,VALID,19.3534,VALID,35,VALID,1.02671,
2009-07-16, 00:43:00,VALID,918.447,VALID,0,VALID,100,VALID,-0.0509425,VALID,19.3244,VALID,37,VALID,1.29948,
2009-07-16, 00:44:00,VALID,918.45,VALID,0,VALID,100,VALID,0,VALID,19.285,VALID,21,VALID,0.902798,
2009-07-16, 00:45:00,VALID,918.44,VALID,0,VALID,100,VALID,-0.0339617,VALID,19.2852,VALID,20,VALID,0.711682,
2009-07-16, 00:46:00,VALID,918.428,VALID,0,VALID,100,VALID,-0.0509425,VALID,19.2393,VALID,32,VALID,1.12574,
2009-07-16, 00:47:00,VALID,918.418,VALID,0,VALID,100,VALID,-0.0679233,VALID,19.2136,VALID,39,VALID,0.920387,
2009-07-16, 00:48:00,VALID,918.394,VALID,0,VALID,100,VALID,-0.0509425,VALID,19.2268,VALID,40,VALID,0.593192,
2009-07-16, 00:49:00,VALID,918.398,VALID,0,VALID,100,VALID,-0.0679233,VALID,19.2136,VALID,39,VALID,0.527344,
2009-07-16, 00:50:00,VALID,918.377,VALID,0,VALID,100,VALID,-0.0849042,VALID,19.1942,VALID,30,VALID,0.53924,
2009-07-16, 00:51:00,VALID,918.389,VALID,0,VALID,100,VALID,-0.0679233,VALID,19.1976,VALID,22,VALID,0.612233,
2009-07-16, 00:52:00,VALID,918.401,VALID,0,VALID,100,VALID,-0.0509425,VALID,19.1842,VALID,22,VALID,0.805398,
2009-07-16, 00:53:00,VALID,918.402,VALID,0,VALID,100,VALID,0,VALID,19.1717,VALID,12,VALID,0.737909,
2009-07-16, 00:54:00,VALID,918.407,VALID,0,VALID,100,VALID,-0.0169808,VALID,19.142,VALID,12,VALID,1.07366,
2009-07-16, 00:55:00,VALID,918.406,VALID,0,VALID,100,VALID,0,VALID,19.1193,VALID,11,VALID,0.813408,
2009-07-16, 00:56:00,VALID,918.391,VALID,0,VALID,100,VALID,-0.0509425,VALID,19.1066,VALID,10,VALID,0.804501,
2009-07-16, 00:57:00,VALID,918.372,VALID,0,VALID,100,VALID,0,VALID,19.0901,VALID,15,VALID,0.684451,
2009-07-16, 00:58:00,VALID,918.349,VALID,0,VALID,100,VALID,0,VALID,19.0779,VALID,15,VALID,0.713118,
2009-07-16, 00:59:00,VALID,918.33,VALID,0,VALID,100,VALID,-0.0509425,VALID,19.0676,VALID,15,VALID,0.676042,
2009-07-16, 01:00:00,VALID,918.31,VALID,0,VALID,100,VALID,-0.0509425,VALID,19.0444,VALID,15,VALID,0.421689,
2009-07-16, 01:01:00,VALID,918.303,VALID,0,VALID,100,VALID,-0.0509425,VALID,19.0774,VALID,15,VALID,0.0731027,
2009-07-16, 01:02:00,VALID,918.295,VALID,0,VALID,100,VALID,-0.0169808,VALID,19.0836,VALID,15,VALID,0.00114329,
2009-07-16, 01:03:00,VALID,918.296,VALID,0,VALID,100,VALID,-0.0169808,VALID,19.0509,VALID,15,VALID,0.263765,
2009-07-16, 01:04:00,VALID,918.277,VALID,0,VALID,100,VALID,0,VALID,19.0347,VALID,15,VALID,0.341206,
2009-07-16, 01:05:00,VALID,918.27,VALID,0,VALID,100,VALID,0,VALID,19.0412,VALID,15,VALID,0.361374,
2009-07-16, 01:06:00,VALID,918.249,VALID,0,VALID,100,VALID,-0.0169808,VALID,19.0414,VALID,27,VALID,0.587054,
2009-07-16, 01:07:00,VALID,918.246,VALID,0,VALID,100,VALID,-0.0509425,VALID,19.0384,VALID,25,VALID,0.717383,
2009-07-16, 01:08:00,VALID,918.258,VALID,0,VALID,100,VALID,0,VALID,19.0414,VALID,17,VALID,0.809152,
2009-07-16, 01:09:00,VALID,918.248,VALID,0,VALID,100,VALID,-0.0169808,VALID,19.0285,VALID,19,VALID,0.347917,
2009-07-16, 01:10:00,VALID,918.263,VALID,0,VALID,100,VALID,-0.0169808,VALID,19.0215,VALID,18,VALID,0.238735,
2009-07-16, 01:11:00,VALID,918.245,VALID,0,VALID,100,VALID,-0.0339617,VALID,19.018,VALID,298,VALID,0,
2009-07-16, 01:12:00,VALID,918.236,VALID,0,VALID,100,VALID,-0.101885,VALID,19.0165,VALID,295,VALID,0.037157,
2009-07-16, 01:13:00,VALID,918.239,VALID,0,VALID,100,VALID,-0.135847,VALID,19.0132,VALID,324,VALID,0.46543,
2009-07-16, 01:14:00,VALID,918.228,VALID,0,VALID,100,VALID,-0.135847,VALID,19.0007,VALID,342,VALID,0.556323,
2009-07-16, 01:15:00,VALID,918.234,VALID,0,VALID,100,VALID,-0.135847,VALID,18.9877,VALID,9,VALID,0.570131,
2009-07-16, 01:16:00,VALID,918.245,VALID,0,VALID,100,VALID,-0.169808,VALID,18.9748,VALID,15,VALID,0.558503,
2009-07-16, 01:17:00,VALID,918.261,VALID,0,VALID,100,VALID,-0.169808,VALID,18.972,VALID,51,VALID,0.79173,
2009-07-16, 01:18:00,VALID,918.272,VALID,0,VALID,100,VALID,-0.152827,VALID,18.9493,VALID,53,VALID,0.607515,
2009-07-16, 01:19:00,VALID,918.29,VALID,0,VALID,100,VALID,-0.152827,VALID,18.9194,VALID,53,VALID,0.314596,
2009-07-16, 01:20:00,VALID,918.284,VALID,0,VALID,100,VALID,-0.118866,VALID,18.9138,VALID,53,VALID,0.25436,
2009-07-16, 01:21:00,VALID,918.283,VALID,0,VALID,100,VALID,-0.135847,VALID,18.9136,VALID,53,VALID,0,
2009-07-16, 01:22:00,VALID,918.276,VALID,0,VALID,100,VALID,-0.135847,VALID,18.9333,VALID,53,VALID,0,
2009-07-16, 01:23:00,VALID,918.258,VALID,0,VALID,100,VALID,-0.169808,VALID,18.949,VALID,53,VALID,0,
2009-07-16, 01:24:00,VALID,918.233,VALID,0,VALID,100,VALID,-0.169808,VALID,18.9623,VALID,53,VALID,0,
2009-07-16, 01:25:00,VALID,918.188,VALID,0,VALID,100,VALID,-0.152827,VALID,18.9518,VALID,53,VALID,0,
2009-07-16, 01:26:00,VALID,918.147,VALID,0,VALID,100,VALID,-0.186789,VALID,18.9752,VALID,53,VALID,0,
2009-07-16, 01:27:00,VALID,918.146,VALID,0,VALID,100,VALID,-0.0339617,VALID,18.9798,VALID,18,VALID,0.179688,
2009-07-16, 01:28:00,VALID,918.133,VALID,0,VALID,100,VALID,-0.0169808,VALID,18.9933,VALID,320,VALID,0.440848,
2009-07-16, 01:29:00,VALID,918.138,VALID,0,VALID,100,VALID,-0.0169808,VALID,19.0185,VALID,314,VALID,0.00944767,
2009-07-16, 01:30:00,VALID,918.153,VALID,0,VALID,100,VALID,-0.0679233,VALID,19.0315,VALID,314,VALID,0,
2009-07-16, 01:31:00,VALID,918.166,VALID,0,VALID,100,VALID,-0.0169808,VALID,19.0746,VALID,314,VALID,0,
2009-07-16, 01:32:00,VALID,918.189,VALID,0,VALID,100,VALID,-0.0509425,VALID,19.0801,VALID,10,VALID,0.263148,
2009-07-16, 01:33:00,VALID,918.213,VALID,0,VALID,100,VALID,-0.0849042,VALID,19.1038,VALID,41,VALID,0.907774,
2009-07-16, 01:34:00,VALID,918.23,VALID,0,VALID,100,VALID,-0.0509425,VALID,19.0642,VALID,27,VALID,0.597656,
2009-07-16, 01:35:00,VALID,918.239,VALID,0,VALID,100,VALID,-0.0849042,VALID,19.0744,VALID,355,VALID,0.726389,
2009-07-16, 01:36:00,VALID,918.227,VALID,0,VALID,100,VALID,-0.0169808,VALID,19.1026,VALID,27,VALID,0.533067,
2009-07-16, 01:37:00,VALID,918.201,VALID,0,VALID,100,VALID,-0.0339617,VALID,19.1193,VALID,26,VALID,0.156622,
2009-07-16, 01:38:00,VALID,918.165,VALID,0,VALID,100,VALID,-0.0339617,VALID,19.1188,VALID,47,VALID,0,
2009-07-16, 01:39:00,VALID,918.151,VALID,0,VALID,100,VALID,-0.0509425,VALID,19.1453,VALID,55,VALID,0,
2009-07-16, 01:40:00,VALID,918.133,VALID,0,VALID,100,VALID,-0.0509425,VALID,19.1385,VALID,38,VALID,0.137109,
2009-07-16, 01:41:00,VALID,918.125,VALID,0,VALID,100,VALID,-0.0849042,VALID,19.1457,VALID,355,VALID,0.449405,
2009-07-16, 01:42:00,VALID,918.129,VALID,0,VALID,100,VALID,-0.0849042,VALID,19.1652,VALID,355,VALID,0.421512,
2009-07-16, 01:43:00,VALID,918.118,VALID,0,VALID,100,VALID,-0.0509425,VALID,19.155,VALID,355,VALID,0.374637,
2009-07-16, 01:44:00,VALID,918.12,VALID,0,VALID,100,VALID,-0.0509425,VALID,19.1353,VALID,357,VALID,0.586617,
2009-07-16, 01:45:00,VALID,918.12,VALID,0,VALID,100,VALID,-0.0509425,VALID,19.1218,VALID,1,VALID,0.517969,
2009-07-16, 01:46:00,VALID,918.13,VALID,0,VALID,100,VALID,-0.0169808,VALID,19.1388,VALID,5,VALID,0.496466,
2009-07-16, 01:47:00,VALID,918.138,VALID,0,VALID,100,VALID,-0.0169808,VALID,19.136,VALID,6,VALID,0.603431,
2009-07-16, 01:48:00,VALID,918.143,VALID,0,VALID,100,VALID,0,VALID,19.1098,VALID,6,VALID,0.659766,
2009-07-16, 01:49:00,VALID,918.122,VALID,0,VALID,100,VALID,-0.0169808,VALID,19.0799,VALID,8,VALID,0.566916,
2009-07-16, 01:50:00,VALID,918.108,VALID,0,VALID,100,VALID,-0.0849042,VALID,19.0769,VALID,12,VALID,0.457889,
2009-07-16, 01:51:00,VALID,918.093,VALID,0,VALID,100,VALID,-0.0679233,VALID,19.1063,VALID,12,VALID,0.384115,
2009-07-16, 01:52:00,VALID,918.078,VALID,0,VALID,100,VALID,0,VALID,19.1258,VALID,12,VALID,0.129092,
2009-07-16, 01:53:00,VALID,918.032,VALID,0,VALID,100,VALID,-0.0339617,VALID,19.1061,VALID,12,VALID,0,
2009-07-16, 01:54:00,VALID,917.974,VALID,0,VALID,100,VALID,-0.0509425,VALID,19.0871,VALID,12,VALID,0,
2009-07-16, 01:55:00,VALID,917.95,VALID,0,VALID,100,VALID,-0.0509425,VALID,19.0836,VALID,12,VALID,0,
2009-07-16, 01:56:00,VALID,917.928,VALID,0,VALID,100,VALID,0,VALID,19.0801,VALID,12,VALID,0,
2009-07-16, 01:57:00,VALID,917.923,VALID,0,VALID,100,VALID,0,VALID,19.1001,VALID,12,VALID,0,
2009-07-16, 01:58:00,VALID,917.919,VALID,0,VALID,100,VALID,-0.0339617,VALID,19.1258,VALID,12,VALID,0,
2009-07-16, 01:59:00,VALID,917.908,VALID,0,VALID,100,VALID,-0.0509425,VALID,19.1487,VALID,12,VALID,0,
2009-07-16, 02:00:00,VALID,917.902,VALID,0,VALID,100,VALID,-0.0169808,VALID,19.1715,VALID,12,VALID,0,
2009-07-16, 02:01:00,VALID,917.891,VALID,0,VALID,100,VALID,-0.0339617,VALID,19.168,VALID,12,VALID,0,
2009-07-16, 02:02:00,VALID,917.862,VALID,0,VALID,100,VALID,0,VALID,19.1582,VALID,12,VALID,0,
2009-07-16, 02:03:00,VALID,917.831,VALID,0,VALID,100,VALID,-0.0509425,VALID,19.1225,VALID,12,VALID,0,
2009-07-16, 02:04:00,VALID,917.806,VALID,0,VALID,100,VALID,-0.0509425,VALID,19.123,VALID,12,VALID,0,
2009-07-16, 02:05:00,VALID,917.794,VALID,0,VALID,100,VALID,-0.0339617,VALID,19.1295,VALID,12,VALID,0,
2009-07-16, 02:06:00,VALID,917.767,VALID,0,VALID,100,VALID,-0.0679233,VALID,19.1131,VALID,12,VALID,0,
2009-07-16, 02:07:00,VALID,917.742,VALID,0,VALID,100,VALID,-0.0339617,VALID,19.123,VALID,12,VALID,0,
2009-07-16, 02:08:00,VALID,917.707,VALID,0,VALID,100,VALID,-0.0509425,VALID,19.1163,VALID,12,VALID,0,
2009-07-16, 02:09:00,VALID,917.698,VALID,0,VALID,100,VALID,0,VALID,19.0836,VALID,12,VALID,0,
2009-07-16, 02:10:00,VALID,917.674,VALID,0,VALID,100,VALID,-0.0339617,VALID,19.0706,VALID,12,VALID,0,
2009-07-16, 02:11:00,VALID,917.667,VALID,0,VALID,100,VALID,-0.0509425,VALID,19.0801,VALID,12,VALID,0,
2009-07-16, 02:12:00,VALID,917.686,VALID,0,VALID,100,VALID,-0.0169808,VALID,19.1063,VALID,12,VALID,0,
2009-07-16, 02:13:00,VALID,917.673,VALID,0,VALID,100,VALID,-0.0509425,VALID,19.1161,VALID,15,VALID,0,
2009-07-16, 02:14:00,VALID,917.665,VALID,0,VALID,100,VALID,-0.0509425,VALID,19.0966,VALID,42,VALID,0,
2009-07-16, 02:15:00,VALID,917.634,VALID,0,VALID,100,VALID,-0.0169808,VALID,19.0674,VALID,47,VALID,0.680246,
2009-07-16, 02:16:00,VALID,917.628,VALID,0,VALID,100,VALID,-0.0169808,VALID,19.0252,VALID,56,VALID,0.638849,
2009-07-16, 02:17:00,VALID,917.589,VALID,0,VALID,100,VALID,-0.0849042,VALID,18.9833,VALID,66,VALID,0.512429,
2009-07-16, 02:18:00,VALID,917.561,VALID,0,VALID,100,VALID,-0.0339617,VALID,18.9708,VALID,66,VALID,0.576308,
2009-07-16, 02:19:00,VALID,917.541,VALID,0,VALID,100,VALID,-0.0169808,VALID,18.9244,VALID,66,VALID,0.645531,
2009-07-16, 02:20:00,VALID,917.525,VALID,0,VALID,100,VALID,-0.0509425,VALID,18.9147,VALID,66,VALID,0.597396,
2009-07-16, 02:21:00,VALID,917.507,VALID,0,VALID,100,VALID,-0.0509425,VALID,18.9149,VALID,58,VALID,0.677973,
2009-07-16, 02:22:00,VALID,917.505,VALID,0,VALID,100,VALID,0,VALID,18.9182,VALID,46,VALID,1.02734,
2009-07-16, 02:23:00,VALID,917.512,VALID,0,VALID,100,VALID,-0.0169808,VALID,18.9209,VALID,52,VALID,0.807736,
2009-07-16, 02:24:00,VALID,917.528,VALID,0,VALID,100,VALID,-0.0169808,VALID,18.9212,VALID,53,VALID,0.384718,
2009-07-16, 02:25:00,VALID,917.532,VALID,0,VALID,100,VALID,-0.0169808,VALID,18.9474,VALID,53,VALID,0.0191592,
2009-07-16, 02:26:00,VALID,917.542,VALID,0,VALID,100,VALID,-0.0169808,VALID,18.9504,VALID,53,VALID,0,
2009-07-16, 02:27:00,VALID,917.529,VALID,0,VALID,100,VALID,-0.0509425,VALID,18.9611,VALID,53,VALID,0,
2009-07-16, 02:28:00,VALID,917.535,VALID,0,VALID,100,VALID,-0.0169808,VALID,18.9409,VALID,53,VALID,0,
2009-07-16, 02:29:00,VALID,917.534,VALID,0,VALID,100,VALID,-0.0339617,VALID,18.9471,VALID,43,VALID,0.131392,
2009-07-16, 02:30:00,VALID,917.519,VALID,0,VALID,100,VALID,-0.0509425,VALID,18.9571,VALID,24,VALID,0.214583,
2009-07-16, 02:31:00,VALID,917.511,VALID,0,VALID,100,VALID,-0.0339617,VALID,18.9773,VALID,24,VALID,0,
2009-07-16, 02:32:00,VALID,917.482,VALID,0,VALID,100,VALID,-0.0849042,VALID,18.9736,VALID,22,VALID,0.0894717,
2009-07-16, 02:33:00,VALID,917.457,VALID,0,VALID,100,VALID,-0.0509425,VALID,18.9798,VALID,17,VALID,0.111151,
2009-07-16, 02:34:00,VALID,917.453,VALID,0,VALID,100,VALID,-0.0509425,VALID,18.9898,VALID,360,VALID,0,
2009-07-16, 02:35:00,VALID,917.436,VALID,0,VALID,100,VALID,-0.0339617,VALID,18.9736,VALID,354,VALID,0,
2009-07-16, 02:36:00,VALID,917.447,VALID,0,VALID,100,VALID,0,VALID,18.9731,VALID,356,VALID,0,
2009-07-16, 02:37:00,VALID,917.434,VALID,0,VALID,100,VALID,-0.0339617,VALID,18.9664,VALID,356,VALID,0,
2009-07-16, 02:38:00,VALID,917.425,VALID,0,VALID,100,VALID,0,VALID,18.9439,VALID,356,VALID,0,
2009-07-16, 02:39:00,VALID,917.416,VALID,0,VALID,100,VALID,-0.0339617,VALID,18.9251,VALID,356,VALID,0,
2009-07-16, 02:40:00,VALID,917.39,VALID,0,VALID,100,VALID,-0.0849042,VALID,18.9117,VALID,356,VALID,0,
2009-07-16, 02:41:00,VALID,917.366,VALID,0,VALID,100,VALID,-0.0509425,VALID,18.9221,VALID,356,VALID,0,
2009-07-16, 02:42:00,VALID,917.365,VALID,0,VALID,100,VALID,0,VALID,18.8987,VALID,356,VALID,0,
2009-07-16, 02:43:00,VALID,917.362,VALID,0,VALID,100,VALID,-0.0679233,VALID,18.8952,VALID,356,VALID,0,
2009-07-16, 02:44:00,VALID,917.355,VALID,0,VALID,100,VALID,-0.0169808,VALID,18.895,VALID,356,VALID,0,
2009-07-16, 02:45:00,VALID,917.338,VALID,0,VALID,100,VALID,-0.0339617,VALID,18.8853,VALID,356,VALID,0,
2009-07-16, 02:46:00,VALID,917.325,VALID,0,VALID,100,VALID,-0.0169808,VALID,18.8892,VALID,356,VALID,0,
2009-07-16, 02:47:00,VALID,917.302,VALID,0,VALID,100,VALID,0,VALID,18.8595,VALID,356,VALID,0,
2009-07-16, 02:48:00,VALID,917.275,VALID,0,VALID,100,VALID,0,VALID,18.8625,VALID,356,VALID,0,
2009-07-16, 02:49:00,VALID,917.265,VALID,0,VALID,100,VALID,-0.0339617,VALID,18.8498,VALID,356,VALID,0,
2009-07-16, 02:50:00,VALID,917.246,VALID,0,VALID,100,VALID,-0.0339617,VALID,18.8466,VALID,356,VALID,0,
2009-07-16, 02:51:00,VALID,917.226,VALID,0,VALID,100,VALID,-0.0169808,VALID,18.8531,VALID,356,VALID,0,
2009-07-16, 02:52:00,VALID,917.202,VALID,0,VALID,100,VALID,-0.0169808,VALID,18.8373,VALID,7,VALID,0,
2009-07-16, 02:53:00,VALID,917.181,VALID,0,VALID,100,VALID,-0.0679233,VALID,18.8076,VALID,38,VALID,0,
2009-07-16, 02:54:00,VALID,917.167,VALID,0,VALID,100,VALID,-0.0339617,VALID,18.7979,VALID,38,VALID,0,
2009-07-16, 02:55:00,VALID,917.156,VALID,0,VALID,100,VALID,-0.0339617,VALID,18.7662,VALID,38,VALID,0,
2009-07-16, 02:56:00,VALID,917.157,VALID,0,VALID,100,VALID,0,VALID,18.7038,VALID,38,VALID,0,
2009-07-16, 02:57:00,VALID,917.161,VALID,0,VALID,100,VALID,-0.0169808,VALID,18.6587,VALID,38,VALID,0,
2009-07-16, 02:58:00,VALID,917.148,VALID,0,VALID,100,VALID,-0.0339617,VALID,18.6063,VALID,38,VALID,0,
2009-07-16, 02:59:00,VALID,917.138,VALID,0,VALID,100,VALID,-0.0169808,VALID,18.5834,VALID,38,VALID,0,
2009-07-16, 03:00:00,VALID,917.129,VALID,0,VALID,100,VALID,-0.0169808,VALID,18.5808,VALID,38,VALID,0,
2009-07-16, 03:01:00,VALID,917.102,VALID,0,VALID,100,VALID,0,VALID,18.5773,VALID,41,VALID,0,
2009-07-16, 03:02:00,VALID,917.092,VALID,0,VALID,100,VALID,-0.0339617,VALID,18.6065,VALID,52,VALID,0.624112,
2009-07-16, 03:03:00,VALID,917.091,VALID,0,VALID,100,VALID,0,VALID,18.6125,VALID,52,VALID,0.683866,
2009-07-16, 03:04:00,VALID,917.081,VALID,0,VALID,100,VALID,-0.101885,VALID,18.6005,VALID,52,VALID,0.561047,
2009-07-16, 03:05:00,VALID,917.071,VALID,0,VALID,100,VALID,0,VALID,18.5716,VALID,41,VALID,0.851736,
2009-07-16, 03:06:00,VALID,917.09,VALID,0,VALID,100,VALID,0,VALID,18.5481,VALID,29,VALID,0.945313,
2009-07-16, 03:07:00,VALID,917.075,VALID,0,VALID,100,VALID,-0.0339617,VALID,18.5322,VALID,30,VALID,0.796693,
2009-07-16, 03:08:00,VALID,917.07,VALID,0,VALID,100,VALID,-0.0509425,VALID,18.522,VALID,37,VALID,0.870808,
2009-07-16, 03:09:00,VALID,917.04,VALID,0,VALID,100,VALID,-0.0509425,VALID,18.5292,VALID,48,VALID,0.799237,
2009-07-16, 03:10:00,VALID,917.034,VALID,0,VALID,100,VALID,-0.0679233,VALID,18.5129,VALID,38,VALID,0.895952,
2009-07-16, 03:11:00,VALID,917.002,VALID,0,VALID,100,VALID,-0.0509425,VALID,18.4967,VALID,37,VALID,0.912427,
2009-07-16, 03:12:00,VALID,916.993,VALID,0,VALID,100,VALID,-0.0169808,VALID,18.4865,VALID,28,VALID,0.962843,
2009-07-16, 03:13:00,VALID,916.967,VALID,0,VALID,100,VALID,-0.0679233,VALID,18.4868,VALID,22,VALID,0.836846,
2009-07-16, 03:14:00,VALID,916.959,VALID,0,VALID,100,VALID,-0.0169808,VALID,18.4868,VALID,22,VALID,0.57049,
2009-07-16, 03:15:00,VALID,916.951,VALID,0,VALID,100,VALID,0,VALID,18.4993,VALID,22,VALID,0.45367,
2009-07-16, 03:16:00,VALID,916.917,VALID,0,VALID,100,VALID,-0.0509425,VALID,18.5289,VALID,22,VALID,0.492898,
2009-07-16, 03:17:00,VALID,916.919,VALID,0,VALID,100,VALID,-0.0169808,VALID,18.5356,VALID,22,VALID,0.320871,
2009-07-16, 03:18:00,VALID,916.888,VALID,0,VALID,100,VALID,-0.0339617,VALID,18.5359,VALID,22,VALID,0.427871,
2009-07-16, 03:19:00,VALID,916.89,VALID,0,VALID,100,VALID,-0.0679233,VALID,18.503,VALID,22,VALID,0.436592,
2009-07-16, 03:20:00,VALID,916.885,VALID,0,VALID,100,VALID,-0.0169808,VALID,18.483,VALID,22,VALID,0.5,
2009-07-16, 03:21:00,VALID,916.883,VALID,0,VALID,100,VALID,-0.0509425,VALID,18.48,VALID,22,VALID,0.550426,
2009-07-16, 03:22:00,VALID,916.881,VALID,0,VALID,100,VALID,-0.0169808,VALID,18.48,VALID,27,VALID,0.682049,
2009-07-16, 03:23:00,VALID,916.876,VALID,0,VALID,100,VALID,-0.0339617,VALID,18.4573,VALID,36,VALID,0.685454,
2009-07-16, 03:24:00,VALID,916.869,VALID,0,VALID,100,VALID,-0.0339617,VALID,18.4481,VALID,36,VALID,0.713663,
2009-07-16, 03:25:00,VALID,916.878,VALID,0,VALID,100,VALID,-0.0339617,VALID,18.455,VALID,36,VALID,0.621652,
2009-07-16, 03:26:00,VALID,916.882,VALID,0,VALID,100,VALID,0,VALID,18.4506,VALID,36,VALID,0.529576,
2009-07-16, 03:27:00,VALID,916.891,VALID,0,VALID,100,VALID,-0.0509425,VALID,18.4678,VALID,36,VALID,0.207667,
2009-07-16, 03:28:00,VALID,916.909,VALID,0,VALID,100,VALID,-0.0169808,VALID,18.484,VALID,36,VALID,0,
2009-07-16, 03:29:00,VALID,916.928,VALID,0,VALID,100,VALID,-0.0339617,VALID,18.4997,VALID,36,VALID,0,
2009-07-16, 03:30:00,VALID,916.949,VALID,0,VALID,100,VALID,-0.0169808,VALID,18.5025,VALID,7,VALID,0,
2009-07-16, 03:31:00,VALID,916.97,VALID,0,VALID,100,VALID,-0.0169808,VALID,18.5155,VALID,351,VALID,0,
2009-07-16, 03:32:00,VALID,916.979,VALID,0,VALID,100,VALID,-0.0339617,VALID,18.5414,VALID,351,VALID,0,
2009-07-16, 03:33:00,VALID,916.975,VALID,0,VALID,100,VALID,-0.0169808,VALID,18.5546,VALID,352,VALID,0.197011,
2009-07-16, 03:34:00,VALID,916.977,VALID,0,VALID,100,VALID,-0.0169808,VALID,18.5803,VALID,352,VALID,0.419398,
2009-07-16, 03:35:00,VALID,916.971,VALID,0,VALID,100,VALID,-0.0339617,VALID,18.5901,VALID,351,VALID,0.594113,
2009-07-16, 03:36:00,VALID,916.954,VALID,0,VALID,100,VALID,-0.0169808,VALID,18.6,VALID,313,VALID,0.625977,
2009-07-16, 03:37:00,VALID,916.925,VALID,0,VALID,100,VALID,-0.0509425,VALID,18.607,VALID,311,VALID,0.165737,
2009-07-16, 03:38:00,VALID,916.911,VALID,0,VALID,100,VALID,0,VALID,18.6158,VALID,311,VALID,0,
2009-07-16, 03:39:00,VALID,916.891,VALID,0,VALID,100,VALID,-0.0339617,VALID,18.6489,VALID,311,VALID,0,
2009-07-16, 03:40:00,VALID,916.875,VALID,0,VALID,100,VALID,-0.0169808,VALID,18.6355,VALID,335,VALID,0,
2009-07-16, 03:41:00,VALID,916.869,VALID,0,VALID,100,VALID,0,VALID,18.6322,VALID,6,VALID,0,
2009-07-16, 03:42:00,VALID,916.851,VALID,0,VALID,100,VALID,-0.0849042,VALID,18.6239,VALID,6,VALID,0.343568,
2009-07-16, 03:43:00,VALID,916.876,VALID,0,VALID,100,VALID,-0.135847,VALID,18.6142,VALID,348,VALID,0.57049,